Regional Weather Roundup
Issued by NWS

Home | Current Version | Previous Version | Graphics & Text | Print | Product List | Glossary On
Versions: 1 2 3 4 5 6 7 8 9 10 11 12 13 14 15 16 17 18 19 20 21 22 23 24 25 26 27 28 29 30 31 32 33 34 35 36 37 38 39 40 41 42 43 44 45 46 47 48 49 50
560
ASUS44 KJAN 301503
RWRMS

MISSISSIPPI HOURLY WEATHER ROUNDUP
NATIONAL WEATHER SERVICE JACKSON MS
1000 AM CDT TUE SEP 30 2014

NOTE: "FAIR: INDICATES FEW OR NO CLOUDS BELOW 12,000 FEET WITH NO
SIGNIFICANT WEATHER AND/OR OBSTRUCTIONS TO VISIBILITY.

MSZ001>002-007>008-010>013-018>021-025>028-034>036-301600-
NORTHWEST MISSISSIPPI

CITY           SKY/WX    TMP DP  RH WIND       PRES   REMARKS
CLARKSDALE     FAIR      77  63  61 E5        29.96S
CLEVELAND      FAIR      78  65  64 CALM      29.94S
GREENWOOD      MOSUNNY   78  66  66 S3        29.94S
GREENVILLE     SUNNY     79  61  53 VRB3      29.94S
GRENADA        FAIR      75  64  69 E3        29.95S
OLIVE BRANCH   MOSUNNY   75  66  73 SE5       29.96S
OXFORD         FAIR      73  66  78 SE3       29.98R
TUNICA         SUNNY     77  61  57 CALM      29.97R
$$

MSZ003>006-009-014>017-022>024-029>033-037>039-301600-
NORTHEAST MISSISSIPPI

CITY           SKY/WX    TMP DP  RH WIND       PRES   REMARKS
COLUMBUS AFB   SUNNY     75  66  73 SE3       29.97S
CORINTH        FAIR      77  64  65 VRB3      29.96S
GOLDN TRIANGLE SUNNY     75  64  69 SE7       29.96S
STARKVILLE     FAIR      75  68  78 SE5       29.96S
TUPELO         SUNNY     76  66  71 SW7       29.96S
$$

MSZ040-058-301600-
CENTRAL MISSISSIPPI

CITY           SKY/WX    TMP DP  RH WIND       PRES   REMARKS
JACKSON INTL   MOSUNNY   82  69  64 SW3       29.95R
JACKSON HAWKNS PTSUNNY   81  69  67 S3        29.95R
MERIDIAN KEY   CLOUDY    75  67  76 E7        29.97R
MERIDIAN NAS   PTSUNNY   73  67  81 E6        29.97R FOG
RAYMOND        FAIR      81  73  78 SE3       29.95R
VICKSBURG      SUNNY     82  68  62 VRB3      29.93F
$$

MSZ059>079-301600-
SOUTH MISSISSIPPI

CITY           SKY/WX    TMP DP  RH WIND       PRES   REMARKS
BROOKHAVEN     FAIR      79  72  78 CALM      29.96R
COLUMBIA       FAIR      79  72  78 CALM      29.92S
HATTIESBURG    PTSUNNY   76  71  85 E7        29.94S
MCCOMB         SUNNY     80  70  71 CALM      29.94R
NATCHEZ        CLOUDY    77  70  78 CALM      29.94R
PINE BELT      MOSUNNY   75  70  83 NE6       29.96R
$$

MSZ080>082-301600-
COASTAL MISSISSIPPI

CITY           SKY/WX    TMP DP  RH WIND       PRES   REMARKS
BAY ST LOUIS   MOSUNNY   81  70  69 VRB5      29.92R
BILOXI         SUNNY     79  72  78 E6        29.92R
PASCAGOULA     CLOUDY    76  71  85 NE8       29.92S
GULFPORT       SUNNY     79  71  76 VRB5      29.91R
$$



USA.gov is the U.S. government's official web portal to all federal, state and local government web resources and services.